• In Hungary
  • List of Countries
  • For 7 days
  • Water Temperature
  • Satellite Maps
  • Weather Map
  • News
  • Weather Widgets
  • user-avatar
    Login

    Hourly Weather Pazardzhik

    Today, 16 August, Thursday

    Time Temperature Precipitation Wind Pressure Humidity
    00:00 +22°C° 0 mm 1 mps 742 mmHg 49%
    01:00 +22°C° 0 mm 1 mps 742 mmHg 50%
    02:00 +21°C° 0 mm 2 mps 742 mmHg 48%
    03:00 +20°C° 0 mm 2 mps 742 mmHg 50%
    04:00 +20°C° 0 mm 2 mps 742 mmHg 51%
    05:00 +20°C° 0 mm 2 mps 742 mmHg 52%
    06:00 +23°C° 0 mm 2 mps 742 mmHg 50%
    07:00 +25°C° 0 mm 1 mps 742 mmHg 48%
    08:00 +27°C° 0 mm 2 mps 742 mmHg 43%
    09:00 +28°C° 0 mm 2 mps 742 mmHg 40%
    10:00 +30°C° 0 mm 2 mps 742 mmHg 37%
    11:00 +32°C° 0 mm 2 mps 742 mmHg 34%
    12:00 +32°C° 0 mm 2 mps 742 mmHg 33%
    13:00 +34°C° 0 mm 2 mps 741 mmHg 31%
    14:00 +34°C° 0 mm 3 mps 741 mmHg 30%
    15:00 +34°C° 0 mm 3 mps 741 mmHg 31%
    16:00 +32°C° 0 mm 2 mps 741 mmHg 33%
    17:00 +32°C° 0 mm 2 mps 740 mmHg 35%
    18:00 +30°C° 0 mm 2 mps 740 mmHg 40%
    19:00 +27°C° 0 mm 1 mps 740 mmHg 45%
    20:00 +25°C° 0 mm 1 mps 740 mmHg 51%
    21:00 +25°C° 0 mm 1 mps 741 mmHg 52%
    22:00 +24°C° 0 mm 1 mps 741 mmHg 53%
    23:00 +24°C° 0 mm 1 mps 741 mmHg 54%

    Tomorrow, 17 August, Friday

    Time Temperature Precipitation Wind Pressure Humidity
    00:00 +24°C° 0.1 mm 1 mps 741 mmHg 56%
    01:00 +23°C° 0.1 mm 2 mps 741 mmHg 57%
    02:00 +23°C° 0.1 mm 2 mps 741 mmHg 59%
    03:00 +23°C° 0 mm 2 mps 741 mmHg 60%
    04:00 +21°C° 0 mm 2 mps 741 mmHg 62%
    05:00 +21°C° 0 mm 2 mps 741 mmHg 63%
    06:00 +24°C° 0 mm 2 mps 741 mmHg 59%
    07:00 +25°C° 0 mm 2 mps 741 mmHg 55%
    08:00 +27°C° 0 mm 2 mps 742 mmHg 50%
    09:00 +29°C° 0 mm 2 mps 742 mmHg 46%
    10:00 +30°C° 0 mm 2 mps 742 mmHg 41%
    11:00 +32°C° 0 mm 2 mps 742 mmHg 36%
    12:00 +32°C° 0 mm 2 mps 741 mmHg 35%
    13:00 +34°C° 0 mm 2 mps 741 mmHg 34%
    14:00 +35°C° 0 mm 2 mps 741 mmHg 32%
    15:00 +34°C° 0 mm 2 mps 741 mmHg 34%
    16:00 +32°C° 0 mm 2 mps 740 mmHg 36%
    17:00 +32°C° 0 mm 2 mps 740 mmHg 38%
    18:00 +30°C° 0 mm 2 mps 740 mmHg 43%
    19:00 +28°C° 0 mm 2 mps 740 mmHg 47%
    20:00 +26°C° 0 mm 1 mps 741 mmHg 51%
    21:00 +25°C° 0 mm 1 mps 741 mmHg 53%
    22:00 +25°C° 0 mm 1 mps 741 mmHg 54%
    23:00 +24°C° 0 mm 1 mps 742 mmHg 55%

    Day after tomorrow, 18 August, Saturday

    Time Temperature Precipitation Wind Pressure Humidity
    00:00 +24°C° 0 mm 1 mps 742 mmHg 56%
    01:00 +24°C° 0 mm 1 mps 742 mmHg 57%
    02:00 +23°C° 0 mm 1 mps 742 mmHg 58%
    03:00 +23°C° 0 mm 1 mps 742 mmHg 59%
    04:00 +22°C° 0 mm 1 mps 742 mmHg 61%
    05:00 +22°C° 0 mm 1 mps 742 mmHg 62%
    06:00 +24°C° 0 mm 1 mps 742 mmHg 58%
    07:00 +26°C° 0 mm 1 mps 742 mmHg 53%
    08:00 +27°C° 0 mm 1 mps 743 mmHg 49%
    09:00 +29°C° 0 mm 2 mps 743 mmHg 44%
    10:00 +31°C° 0 mm 2 mps 743 mmHg 38%
    11:00 +33°C° 0 mm 3 mps 743 mmHg 33%
    12:00 +34°C° 0 mm 3 mps 742 mmHg 32%
    13:00 +34°C° 0 mm 3 mps 742 mmHg 32%
    14:00 +34°C° 0 mm 3 mps 742 mmHg 32%
    15:00 +34°C° 0 mm 3 mps 742 mmHg 34%
    16:00 +33°C° 0 mm 3 mps 741 mmHg 36%
    17:00 +31°C° 0 mm 3 mps 741 mmHg 38%
    18:00 +30°C° 0 mm 2 mps 741 mmHg 43%
    19:00 +28°C° 0 mm 2 mps 742 mmHg 48%
    20:00 +26°C° 0 mm 1 mps 742 mmHg 52%
    21:00 +25°C° 0 mm 1 mps 742 mmHg 53%
    22:00 +25°C° 0 mm 1 mps 743 mmHg 54%
    23:00 +24°C° 0 mm 1 mps 743 mmHg 55%

    19 August, Sunday

    Time Temperature Precipitation Wind Pressure Humidity
    00:00 +24°C° 0 mm 1 mps 743 mmHg 56%
    01:00 +24°C° 0 mm 1 mps 743 mmHg 57%
    02:00 +23°C° 0 mm 1 mps 743 mmHg 58%
    03:00 +23°C° 0 mm 2 mps 743 mmHg 59%
    04:00 +23°C° 0 mm 2 mps 743 mmHg 60%
    05:00 +21°C° 0 mm 2 mps 743 mmHg 61%
    06:00 +24°C° 0 mm 2 mps 743 mmHg 56%
    07:00 +26°C° 0 mm 1 mps 743 mmHg 52%
    08:00 +28°C° 0 mm 1 mps 743 mmHg 47%
    09:00 +30°C° 0 mm 2 mps 743 mmHg 42%
    10:00 +31°C° 0 mm 2 mps 743 mmHg 38%
    11:00 +34°C° 0 mm 2 mps 743 mmHg 33%
    12:00 +34°C° 0 mm 3 mps 743 mmHg 34%
    13:00 +34°C° 0 mm 3 mps 742 mmHg 34%
    14:00 +34°C° 0 mm 3 mps 742 mmHg 34%
    15:00 +33°C° 0 mm 3 mps 742 mmHg 36%
    16:00 +33°C° 0 mm 3 mps 742 mmHg 38%
    17:00 +33°C° 0 mm 3 mps 741 mmHg 39%
    18:00 +30°C° 0.2 mm 2 mps 741 mmHg 45%
    19:00 +27°C° 0.2 mm 2 mps 742 mmHg 52%
    20:00 +25°C° 0.2 mm 2 mps 742 mmHg 58%
    21:00 +25°C° 0.1 mm 2 mps 742 mmHg 59%
    22:00 +24°C° 0.1 mm 1 mps 742 mmHg 60%
    23:00 +24°C° 0.1 mm 1 mps 742 mmHg 61%

    20 August, Monday

    Time Temperature Precipitation Wind Pressure Humidity
    00:00 +23°C° 0 mm 1 mps 742 mmHg 62%
    01:00 +23°C° 0 mm 1 mps 742 mmHg 63%
    02:00 +23°C° 0 mm 1 mps 742 mmHg 64%
    03:00 +22°C° 0 mm 1 mps 742 mmHg 65%
    04:00 +21°C° 0 mm 2 mps 742 mmHg 65%
    05:00 +21°C° 0 mm 2 mps 742 mmHg 65%
    06:00 +24°C° 0 mm 2 mps 742 mmHg 60%
    07:00 +26°C° 0 mm 1 mps 743 mmHg 55%
    08:00 +27°C° 0 mm 1 mps 743 mmHg 50%
    09:00 +29°C° 0 mm 2 mps 743 mmHg 45%
    10:00 +31°C° 0 mm 2 mps 743 mmHg 40%
    11:00 +34°C° 0 mm 2 mps 743 mmHg 36%
    12:00 +34°C° 0 mm 2 mps 743 mmHg 36%
    13:00 +34°C° 0 mm 3 mps 742 mmHg 35%
    14:00 +34°C° 0 mm 3 mps 742 mmHg 35%
    15:00 +34°C° 0 mm 3 mps 742 mmHg 37%
    16:00 +33°C° 0 mm 3 mps 742 mmHg 38%
    17:00 +33°C° 0 mm 3 mps 742 mmHg 40%
    18:00 +30°C° 0.2 mm 2 mps 742 mmHg 46%
    19:00 +28°C° 0.2 mm 2 mps 742 mmHg 52%
    20:00 +26°C° 0.2 mm 1 mps 742 mmHg 59%
    21:00 +25°C° 0.2 mm 1 mps 742 mmHg 61%
    22:00 +24°C° 0.2 mm 1 mps 743 mmHg 63%
    23:00 +23°C° 0.2 mm 1 mps 743 mmHg 65%

    21 August, Tuesday

    Time Temperature Precipitation Wind Pressure Humidity
    00:00 +23°C° 0.1 mm 1 mps 743 mmHg 66%
    01:00 +22°C° 0.1 mm 1 mps 743 mmHg 68%
    02:00 +22°C° 0.1 mm 1 mps 743 mmHg 69%
    03:00 +22°C° 0 mm 1 mps 743 mmHg 70%
    04:00 +22°C° 0 mm 1 mps 743 mmHg 70%
    05:00 +21°C° 0 mm 1 mps 743 mmHg 71%
    06:00 +23°C° 0 mm 1 mps 744 mmHg 66%
    07:00 +25°C° 0 mm 1 mps 744 mmHg 61%
    08:00 +27°C° 0 mm 1 mps 744 mmHg 55%
    09:00 +29°C° 0 mm 1 mps 744 mmHg 51%
    10:00 +30°C° 0 mm 2 mps 744 mmHg 46%
    11:00 +32°C° 0 mm 2 mps 744 mmHg 41%
    12:00 +32°C° 0.1 mm 2 mps 743 mmHg 40%
    13:00 +34°C° 0.1 mm 2 mps 743 mmHg 38%
    14:00 +34°C° 0.1 mm 2 mps 743 mmHg 37%
    15:00 +34°C° 0 mm 2 mps 742 mmHg 38%
    16:00 +32°C° 0 mm 2 mps 742 mmHg 40%
    17:00 +32°C° 0 mm 2 mps 742 mmHg 41%
    18:00 +30°C° 0 mm 2 mps 742 mmHg 46%
    19:00 +28°C° 0 mm 1 mps 742 mmHg 51%
    20:00 +26°C° 0 mm 1 mps 742 mmHg 56%
    21:00 +25°C° 0 mm 1 mps 743 mmHg 57%
    22:00 +24°C° 0 mm 1 mps 743 mmHg 58%
    23:00 +23°C° 0 mm 1 mps 743 mmHg 59%
    Show more